Location: ??????
(55.2000°N, 38.3000°E)
Time: 02:13:13
(UTC+00:00)

Cosmos 2322 Rocket - Pass Details

Date: 15 November 2025
Orbit: 830 x 851 km, 71.0° (Epoch: 12 December)

Event Time Altitude Azimuth Distance (km) Brightness Sun altitude
Exits shadow 00:34:16 24° 21° (NNE) 1,712 4.1 -37.1°
Drops below altitude 10° 00:36:29 10° 30° (NNE) 2,489 5.1 -36.8°
Sets 00:39:01 0° 35° (NE) 3,430 6.1 -36.5°
